This is the latest recevied weather packets stored in our database for station/object KD0RIH. If no packets are shown the sender has not sent any weather packets the latest 1 day(s).
| Time | Temp. | Humidity | Pressure | Rain* | Wind** | Luminosity | Snow |
|---|---|---|---|---|---|---|---|
| 1778033904 | 11.11° C | 75% | 1012.2 hPa | 0 mm | - | 0 W/m² | - |
| 1778033600 | 11.11° C | 74% | 1012.3 hPa | 0 mm | - | 0 W/m² | - |
| 1778033297 | 11.11° C | 73% | 1012.1 hPa | 0 mm | - | 0 W/m² | - |
| 1778032995 | 11.67° C | 73% | 1012 hPa | 0 mm | - | 0 W/m² | - |
| 1778032693 | 11.67° C | 72% | 1012.2 hPa | 0 mm | - | 0 W/m² | - |
| 1778032390 | 11.67° C | 71% | 1012.1 hPa | 0 mm | - | 0 W/m² | - |
| 1778032086 | 11.67° C | 71% | 1012.1 hPa | 0 mm | - | 0 W/m² | - |
| 1778031480 | 11.67° C | 70% | 1012.1 hPa | 0 mm | - | 0 W/m² | - |
| 1778031177 | 11.67° C | 69% | 1012.1 hPa | 0 mm | - | 0 W/m² | - |
| 1778030873 | 11.67° C | 70% | 1012 hPa | 0 mm | - | 0 W/m² | - |
| 1778030268 | 12.22° C | 69% | 1011.6 hPa | 0 mm | - | 1 W/m² | - |
| 1778029964 | 12.22° C | 69% | 1011.7 hPa | 0 mm | - | 1 W/m² | - |
| 1778029662 | 12.22° C | 68% | 1011.8 hPa | 0 mm | - | 2 W/m² | - |
| 1778029359 | 12.22° C | 68% | 1011.9 hPa | 0 mm | - | 3 W/m² | - |
| 1778029057 | 12.78° C | 66% | 1011.6 hPa | 0 mm | - | 4 W/m² | - |
| 1778028753 | 12.78° C | 63% | 1011.6 hPa | 0 mm | - | 5 W/m² | - |
| 1778028449 | 12.78° C | 59% | 1011.5 hPa | 0 mm | - | 9 W/m² | - |
| 1778028147 | 12.78° C | 57% | 1011.5 hPa | 0 mm | - | 14 W/m² | - |
| 1778026932 | 13.33° C | 51% | 1011.5 hPa | 0 mm | - | 21 W/m² | - |
| 1778025115 | 13.33° C | 49% | 1011.5 hPa | 0 mm | - | 39 W/m² | - |
| 1778022693 | 14.44° C | 46% | 1011.2 hPa | 0 mm | - | 48 W/m² | - |
| 1778022391 | 14.44° C | 44% | 1011.2 hPa | 0 mm | - | 56 W/m² | - |
| 1778020874 | 14.44° C | 45% | 1011.2 hPa | 0 mm | - | 84 W/m² | - |
| 1778019357 | 14.44° C | 45% | 1011.5 hPa | 0 mm | - | 96 W/m² | - |
* Rain latest hour (hover to see other rain measurements)
** Current wind speed in m/s (hover to see current wind gust speed)